Location: Canazei
(46.4667°N, 11.7667°E)
Time: 06:06:08
(UTC+00:00)

Gbstr 26 Del rocket - Pass Details

Date: 21 April 2021
Orbit: 493 x 1263 km, 51.8° (Epoch: 05 May)

Event Time Altitude Azimuth Distance (km) Brightness Sun altitude
Exits shadow 01:46:45 28° 276° (W) 1,618 4.8 -22.1°
Maximum altitude 01:49:53 58° 344° (NNW) 948 4.1 -21.7°
Drops below altitude 10° 01:54:51 10° 64° (ENE) 2,167 6.8 -21.2°
Sets 01:57:01 0° 69° (ENE) 2,981 7.7 -20.9°
